^^

New Milford Station Historical Data

 
Daily Summary for September 20, 2018 Units:  English    Metric   Both
Daily Weekly Monthly Yearly Custom
  Current: High: Low: Average:
Temperature: 65 °F 71 °F 60.9 °F 65.5 °F
Dew Point: 62.6 °F 63.7 °F 57.9 °F 60.7 °F
Humidity: 92% 95% 69% 85%
Wind Speed: 0mph 1mph 0mph 0mph
Wind Gust: 0mph 4mph - -
WindCalm - - WNW
Pressure: 30.21 in 30.22 in 30.04 in -
Precipitation: 0 in      
Historical Graphs
 
 
Tabular Data for September 20, 2018
Time Temperature Dew Point Pressure Wind Wind Speed Wind Gust Humidity Rainfall Rate (Hourly) solar
00:00 65.1 °F 63.7 °F 30.04 in Calm     95% 0 in WeatherDisplay:10.37 W/m2
00:05 65.1 °F 63.6 °F 30.04 in Calm     95% 0 in WeatherDisplay:10.37 W/m2
00:10 65 °F 63.6 °F 30.04 in Calm     95% 0 in WeatherDisplay:10.37 W/m2
00:15 65.1 °F 63.6 °F 30.04 in Calm     95% 0 in WeatherDisplay:10.37 W/m2
00:20 65.1 °F 63.6 °F 30.04 in Calm     95% 0 in WeatherDisplay:10.37 W/m2
00:25 65.1 °F 63.7 °F 30.05 in Calm     95% 0 in WeatherDisplay:10.37 W/m2
00:30 65 °F 63.5 °F 30.05 in Calm     95% 0 in WeatherDisplay:10.37 W/m2
00:35 65 °F 63.2 °F 30.05 in Calm     94% 0 in WeatherDisplay:10.37 W/m2
00:40 64.9 °F 63.2 °F 30.05 in Calm     94% 0 in WeatherDisplay:10.37 W/m2
00:45 64.9 °F 63.1 °F 30.05 in Calm     94% 0 in WeatherDisplay:10.37 W/m2
00:50 64.9 °F 62.8 °F 30.05 in Calm     93% 0 in WeatherDisplay:10.37 W/m2
00:55 64.8 °F 62.7 °F 30.05 in Calm     93% 0 in WeatherDisplay:10.37 W/m2
01:00 64.8 °F 63 °F 30.05 in Calm     94% 0 in WeatherDisplay:10.37 W/m2
01:05 64.8 °F 62.8 °F 30.05 in Calm     93% 0 in WeatherDisplay:10.37 W/m2
01:10 64.8 °F 62.7 °F 30.05 in Calm     93% 0 in WeatherDisplay:10.37 W/m2
01:15 64.7 °F 62.6 °F 30.05 in Calm     93% 0 in WeatherDisplay:10.37 W/m2
01:20 64.7 °F 62.3 °F 30.05 in Calm     92% 0 in WeatherDisplay:10.37 W/m2
01:25 64.6 °F 62.2 °F 30.05 in Calm     92% 0 in WeatherDisplay:10.37 W/m2
01:30 64.6 °F 62.2 °F 30.05 in Calm     92% 0 in WeatherDisplay:10.37 W/m2
01:35 64.6 °F 62.2 °F 30.05 in Calm     92% 0 in WeatherDisplay:10.37 W/m2
01:40 64.6 °F 62.6 °F 30.05 in Calm     93% 0 in WeatherDisplay:10.37 W/m2
01:45 64.4 °F 62 °F 30.06 in Calm     92% 0 in WeatherDisplay:10.37 W/m2
01:50 64.4 °F 62.3 °F 30.06 in Calm     93% 0 in WeatherDisplay:10.37 W/m2
01:55 64.3 °F 62.3 °F 30.06 in Calm     93% 0 in WeatherDisplay:10.37 W/m2
02:00 64.3 °F 61.9 °F 30.06 in Calm     92% 0 in WeatherDisplay:10.37 W/m2
02:05 64.2 °F 61.5 °F 30.06 in Calm     91% 0 in WeatherDisplay:10.37 W/m2
02:10 64.1 °F 61.4 °F 30.06 in Calm     91% 0 in WeatherDisplay:10.37 W/m2
02:15 64.1 °F 61.4 °F 30.06 in Calm     91% 0 in WeatherDisplay:10.37 W/m2
02:20 64 °F 61.4 °F 30.06 in Calm     91% 0 in WeatherDisplay:10.37 W/m2
02:25 63.9 °F 61.2 °F 30.06 in Calm     91% 0 in WeatherDisplay:10.37 W/m2
02:30 63.8 °F 61.1 °F 30.06 in Calm     91% 0 in WeatherDisplay:10.37 W/m2
02:35 63.8 °F 61.1 °F 30.06 in Calm     91% 0 in WeatherDisplay:10.37 W/m2
02:40 63.8 °F 61.1 °F 30.06 in Calm     91% 0 in WeatherDisplay:10.37 W/m2
02:45 63.8 °F 61.1 °F 30.06 in Calm     91% 0 in WeatherDisplay:10.37 W/m2
02:50 63.7 °F 61 °F 30.06 in Calm     91% 0 in WeatherDisplay:10.37 W/m2
02:55 63.7 °F 61 °F 30.06 in Calm     91% 0 in WeatherDisplay:10.37 W/m2
03:00 63.6 °F 60.9 °F 30.07 in Calm     91% 0 in WeatherDisplay:10.37 W/m2
03:05 63.5 °F 60.8 °F 30.07 in Calm     91% 0 in WeatherDisplay:10.37 W/m2
03:10 63.5 °F 60.5 °F 30.07 in Calm     90% 0 in WeatherDisplay:10.37 W/m2
03:15 63.4 °F 60.7 °F 30.07 in Calm     91% 0 in WeatherDisplay:10.37 W/m2
03:20 63.4 °F 60.7 °F 30.07 in Calm     91% 0 in WeatherDisplay:10.37 W/m2
03:25 63.4 °F 60.7 °F 30.07 in Calm     91% 0 in WeatherDisplay:10.37 W/m2
03:30 63.3 °F 60.7 °F 30.07 in Calm     91% 0 in WeatherDisplay:10.37 W/m2
03:35 63.2 °F 60.6 °F 30.07 in Calm     91% 0 in WeatherDisplay:10.37 W/m2
03:40 63.2 °F 60.5 °F 30.07 in Calm     91% 0 in WeatherDisplay:10.37 W/m2
03:45 63.1 °F 60.4 °F 30.07 in Calm     91% 0 in WeatherDisplay:10.37 W/m2
03:50 63.1 °F 60.5 °F 30.07 in Calm     91% 0 in WeatherDisplay:10.37 W/m2
03:55 63 °F 60.3 °F 30.07 in Calm     91% 0 in WeatherDisplay:10.37 W/m2
04:00 62.9 °F 60.2 °F 30.08 in Calm     91% 0 in WeatherDisplay:10.37 W/m2
04:05 62.9 °F 60.3 °F 30.08 in Calm     91% 0 in WeatherDisplay:10.37 W/m2
04:10 62.9 °F 60.3 °F 30.08 in Calm     91% 0 in WeatherDisplay:10.37 W/m2
04:15 62.7 °F 59.7 °F 30.08 in Calm     90% 0 in WeatherDisplay:10.37 W/m2
04:20 62.7 °F 59.7 °F 30.08 in Calm     90% 0 in WeatherDisplay:10.37 W/m2
04:25 62.5 °F 59.6 °F 30.09 in Calm     90% 0 in WeatherDisplay:10.37 W/m2
04:30 62.4 °F 59.4 °F 30.09 in Calm     90% 0 in WeatherDisplay:10.37 W/m2
04:35 62.3 °F 59.6 °F 30.09 in Calm     91% 0 in WeatherDisplay:10.37 W/m2
04:40 62.3 °F 59.6 °F 30.09 in Calm     91% 0 in WeatherDisplay:10.37 W/m2
04:45 62.2 °F 59.5 °F 30.09 in Calm     91% 0 in WeatherDisplay:10.37 W/m2
04:50 62.1 °F 59.8 °F 30.09 in Calm     92% 0 in WeatherDisplay:10.37 W/m2
04:55 62 °F 59.7 °F 30.09 in Calm     92% 0 in WeatherDisplay:10.37 W/m2
05:00 62 °F 59.7 °F 30.09 in Calm     92% 0 in WeatherDisplay:10.37 W/m2
05:05 62 °F 59.7 °F 30.09 in Calm     92% 0 in WeatherDisplay:10.37 W/m2
05:10 62 °F 59 °F 30.09 in Calm     90% 0 in WeatherDisplay:10.37 W/m2
05:15 61.8 °F 58.8 °F 30.10 in Calm     90% 0 in WeatherDisplay:10.37 W/m2
05:20 61.7 °F 58.7 °F 30.10 in Calm     90% 0 in WeatherDisplay:10.37 W/m2
05:25 61.6 °F 58.7 °F 30.10 in Calm     90% 0 in WeatherDisplay:10.37 W/m2
05:30 61.6 °F 58.6 °F 30.10 in Calm     90% 0 in WeatherDisplay:10.37 W/m2
05:35 61.6 °F 58.6 °F 30.10 in Calm     90% 0 in WeatherDisplay:10.37 W/m2
05:40 61.5 °F 58.5 °F 30.10 in Calm     90% 0 in WeatherDisplay:10.37 W/m2
05:45 61.4 °F 58.5 °F 30.11 in Calm     90% 0 in WeatherDisplay:10.37 W/m2
05:50 61.4 °F 58.4 °F 30.11 in Calm     90% 0 in WeatherDisplay:10.37 W/m2
05:55 61.4 °F 58.4 °F 30.11 in Calm     90% 0 in WeatherDisplay:10.37 W/m2
06:00 61.3 °F 58.4 °F 30.11 in Calm     90% 0 in WeatherDisplay:10.37 W/m2
06:05 61.2 °F 58.2 °F 30.11 in Calm     90% 0 in WeatherDisplay:10.37 W/m2
06:10 61.2 °F 58.3 °F 30.11 in Calm     90% 0 in WeatherDisplay:10.37 W/m2
06:15 61.3 °F 58.4 °F 30.11 in Calm     90% 0 in WeatherDisplay:10.37 W/m2
06:20 61.3 °F 58.7 °F 30.11 in Calm     91% 0 in WeatherDisplay:10.37 W/m2
06:25 61.3 °F 58.3 °F 30.12 in Calm     90% 0 in WeatherDisplay:10.37 W/m2
06:30 61.1 °F 58.1 °F 30.12 in Calm     90% 0 in WeatherDisplay:10.37 W/m2
06:35 61.2 °F 58.2 °F 30.12 in Calm     90% 0 in WeatherDisplay:10.37 W/m2
06:40 61.1 °F 58.2 °F 30.13 in Calm     90% 0 in WeatherDisplay:10.37 W/m2
06:45 61.1 °F 58.1 °F 30.13 in Calm     90% 0 in WeatherDisplay:10.37 W/m2
06:50 61 °F 58.1 °F 30.13 in Calm     90% 0 in WeatherDisplay:10.37 W/m2
06:55 60.9 °F 58 °F 30.13 in Calm     90% 0 in WeatherDisplay:10.37 W/m2
07:00 60.9 °F 58 °F 30.14 in Calm     90% 0 in WeatherDisplay:10.37 W/m2
07:05 61.1 °F 58.4 °F 30.14 in Calm     91% 0 in WeatherDisplay:10.37 W/m2
07:10 61 °F 58.4 °F 30.14 in Calm     91% 0 in WeatherDisplay:10.37 W/m2
07:15 61.1 °F 58.4 °F 30.14 in Calm     91% 0 in WeatherDisplay:10.37 W/m2
07:20 61.1 °F 58.5 °F 30.15 in Calm     91% 0 in WeatherDisplay:10.37 W/m2
07:25 61.1 °F 58.8 °F 30.15 in Calm     92% 0 in WeatherDisplay:10.37 W/m2
07:30 61.2 °F 58.9 °F 30.16 in Calm     92% 0 in WeatherDisplay:10.37 W/m2
07:35 61.3 °F 59 °F 30.16 in Calm     92% 0 in WeatherDisplay:10.37 W/m2
07:40 61.4 °F 59.1 °F 30.17 in Calm     92% 0 in WeatherDisplay:10.37 W/m2
07:45 61.5 °F 58.8 °F 30.17 in Calm     91% 0 in WeatherDisplay:10.37 W/m2
07:50 61.5 °F 58.8 °F 30.17 in Calm     91% 0 in WeatherDisplay:10.37 W/m2
07:55 61.5 °F 58.5 °F 30.16 in Calm     90% 0 in WeatherDisplay:10.37 W/m2
08:00 61.5 °F 58.6 °F 30.17 in Calm     90% 0 in WeatherDisplay:10.37 W/m2
08:05 61.6 °F 58.7 °F 30.17 in Calm     90% 0 in WeatherDisplay:10.37 W/m2
08:10 61.7 °F 58.8 °F 30.16 in Calm     90% 0 in WeatherDisplay:10.37 W/m2
08:15 61.9 °F 58.9 °F 30.16 in Calm     90% 0 in WeatherDisplay:10.37 W/m2
08:20 62.1 °F 59.1 °F 30.17 in Calm     90% 0 in WeatherDisplay:10.37 W/m2
08:25 62.2 °F 59.2 °F 30.17 in Calm     90% 0 in WeatherDisplay:10.37 W/m2
08:30 62.4 °F 59.1 °F 30.18 in Calm   1 mph 89% 0 in WeatherDisplay:10.37 W/m2
08:35 62.5 °F 58.9 °F 30.18 in Calm   2 mph 88% 0 in WeatherDisplay:10.37 W/m2
08:40 62.4 °F 58.2 °F 30.18 in Calm   1 mph 86% 0 in WeatherDisplay:10.37 W/m2
08:45 62.5 °F 58.6 °F 30.18 in Calm     87% 0 in WeatherDisplay:10.37 W/m2
08:50 62.6 °F 58.7 °F 30.17 in Calm     87% 0 in WeatherDisplay:10.37 W/m2
08:55 62.7 °F 58.8 °F 30.18 in Calm     87% 0 in WeatherDisplay:10.37 W/m2
09:00 62.8 °F 58.6 °F 30.18 in Calm     86% 0 in WeatherDisplay:10.37 W/m2
09:05 63 °F 58.7 °F 30.19 in Calm     86% 0 in WeatherDisplay:10.37 W/m2
09:10 63.2 °F 58.6 °F 30.19 in Calm   1 mph 85% 0 in WeatherDisplay:10.37 W/m2
09:15 63.4 °F 58.5 °F 30.19 in Calm   2 mph 84% 0 in WeatherDisplay:10.37 W/m2
09:20 63.5 °F 58.6 °F 30.19 in Calm   2 mph 84% 0 in WeatherDisplay:10.37 W/m2
09:25 63.5 °F 58.6 °F 30.19 in Calm     84% 0 in WeatherDisplay:10.37 W/m2
09:30 63.7 °F 58.8 °F 30.19 in Calm     84% 0 in WeatherDisplay:10.37 W/m2
09:35 63.9 °F 58.3 °F 30.20 in Calm     82% 0 in WeatherDisplay:10.37 W/m2
09:40 63.9 °F 58.3 °F 30.19 in Calm     82% 0 in WeatherDisplay:10.37 W/m2
09:45 64 °F 58.4 °F 30.19 in Calm     82% 0 in WeatherDisplay:10.37 W/m2
09:50 63.9 °F 58.3 °F 30.19 in Calm     82% 0 in WeatherDisplay:10.37 W/m2
09:55 64.1 °F 58.8 °F 30.20 in Calm     83% 0 in WeatherDisplay:10.37 W/m2
10:00 64.2 °F 57.9 °F 30.20 in Calm     80% 0 in WeatherDisplay:10.37 W/m2
10:05 64.5 °F 58.9 °F 30.20 in Calm     82% 0 in WeatherDisplay:10.37 W/m2
10:10 64.5 °F 58.2 °F 30.20 in Calm     80% 0 in WeatherDisplay:10.37 W/m2
10:15 64.7 °F 58.7 °F 30.21 in Calm     81% 0 in WeatherDisplay:10.37 W/m2
10:20 64.7 °F 58.4 °F 30.21 in Calm     80% 0 in WeatherDisplay:10.37 W/m2
10:25 64.9 °F 59.3 °F 30.21 in Calm     82% 0 in WeatherDisplay:10.37 W/m2
10:30 64.9 °F 58.6 °F 30.21 in Calm     80% 0 in WeatherDisplay:10.37 W/m2
10:35 65 °F 59 °F 30.21 in Calm     81% 0 in WeatherDisplay:10.37 W/m2
10:40 65.1 °F 59.4 °F 30.21 in Calm     82% 0 in WeatherDisplay:10.37 W/m2
10:45 65.3 °F 59.6 °F 30.21 in Calm     82% 0 in WeatherDisplay:10.37 W/m2
10:50 65.6 °F 60.3 °F 30.22 in Calm   1 mph 83% 0 in WeatherDisplay:10.37 W/m2
10:55 65.9 °F 60.3 °F 30.22 in Calm     82% 0 in WeatherDisplay:10.37 W/m2
11:00 66.2 °F 60.5 °F 30.22 in Calm     82% 0 in WeatherDisplay:10.37 W/m2
11:05 66.4 °F 60 °F 30.21 in Calm     80% 0 in WeatherDisplay:10.37 W/m2
11:10 66.3 °F 60 °F 30.21 in Calm     80% 0 in WeatherDisplay:10.37 W/m2
11:15 66.2 °F 59.2 °F 30.22 in Calm     78% 0 in WeatherDisplay:10.37 W/m2
11:20 66.7 °F 59.6 °F 30.21 in Calm   1 mph 78% 0 in WeatherDisplay:10.37 W/m2
11:25 66.9 °F 59.5 °F 30.21 in Calm   4 mph 77% 0 in WeatherDisplay:10.37 W/m2
11:30 66.8 °F 59 °F 30.21 in Calm   2 mph 76% 0 in WeatherDisplay:10.37 W/m2
11:35 67.2 °F 59.7 °F 30.21 in Calm     77% 0 in WeatherDisplay:10.37 W/m2
11:40 67.1 °F 59.3 °F 30.21 in Calm     76% 0 in WeatherDisplay:10.37 W/m2
11:45 67.7 °F 60.6 °F 30.21 in Calm     78% 0 in WeatherDisplay:10.37 W/m2
11:50 67.8 °F 60.3 °F 30.21 in Calm     77% 0 in WeatherDisplay:10.37 W/m2
11:55 67.7 °F 59.5 °F 30.21 in Calm     75% 0 in WeatherDisplay:10.37 W/m2
12:00 67.8 °F 60.3 °F 30.21 in Calm     77% 0 in WeatherDisplay:10.37 W/m2
12:05 68 °F 60.5 °F 30.21 in Calm     77% 0 in WeatherDisplay:10.37 W/m2
12:10 67.8 °F 59.5 °F 30.21 in Calm     75% 0 in WeatherDisplay:10.37 W/m2
12:15 68 °F 59.4 °F 30.21 in Calm     74% 0 in WeatherDisplay:10.37 W/m2
12:20 68.1 °F 60.6 °F 30.21 in Calm     77% 0 in WeatherDisplay:10.37 W/m2
12:25 68.2 °F 59.2 °F 30.21 in Calm     73% 0 in WeatherDisplay:10.37 W/m2
12:30 68.1 °F 60.2 °F 30.21 in Calm     76% 0 in WeatherDisplay:10.37 W/m2
12:35 68.3 °F 59.7 °F 30.21 in Calm     74% 0 in WeatherDisplay:10.37 W/m2
12:40 68.7 °F 60.1 °F 30.21 in NW 1 mph 1 mph 74% 0 in WeatherDisplay:10.37 W/m2
12:45 68.7 °F 59.3 °F 30.21 in Calm   1 mph 72% 0 in WeatherDisplay:10.37 W/m2
12:50 68.9 °F 59.1 °F 30.21 in Calm     71% 0 in WeatherDisplay:10.37 W/m2
12:55 68.9 °F 59.1 °F 30.21 in Calm     71% 0 in WeatherDisplay:10.37 W/m2
13:00 68.7 °F 59.3 °F 30.20 in Calm     72% 0 in WeatherDisplay:10.37 W/m2
13:05 68.8 °F 59.4 °F 30.20 in Calm     72% 0 in WeatherDisplay:10.37 W/m2
13:10 68.7 °F 60.9 °F 30.20 in Calm     76% 0 in WeatherDisplay:10.37 W/m2
13:15 68.7 °F 60.1 °F 30.20 in Calm     74% 0 in WeatherDisplay:10.37 W/m2
13:20 68.9 °F 61.1 °F 30.20 in Calm     76% 0 in WeatherDisplay:10.37 W/m2
13:25 69.4 °F 61.1 °F 30.20 in Calm     75% 0 in WeatherDisplay:10.37 W/m2
13:30 69.6 °F 60.2 °F 30.20 in Calm   1 mph 72% 0 in WeatherDisplay:10.37 W/m2
13:35 69.8 °F 59.2 °F 30.20 in NW 1 mph 3 mph 69% 0 in WeatherDisplay:10.37 W/m2
13:40 69.6 °F 59.4 °F 30.20 in Calm   2 mph 70% 0 in WeatherDisplay:10.37 W/m2
13:45 69.9 °F 60 °F 30.19 in Calm   3 mph 71% 0 in WeatherDisplay:10.37 W/m2
13:50 70.1 °F 60.3 °F 30.19 in Calm   1 mph 71% 0 in WeatherDisplay:10.37 W/m2
13:55 70 °F 60.6 °F 30.19 in Calm     72% 0 in WeatherDisplay:10.37 W/m2
14:00 70 °F 60.2 °F 30.19 in Calm     71% 0 in WeatherDisplay:10.37 W/m2
14:05 69.9 °F 61.2 °F 30.19 in Calm     74% 0 in WeatherDisplay:10.37 W/m2
14:10 70.1 °F 62.2 °F 30.19 in Calm   2 mph 76% 0 in WeatherDisplay:10.37 W/m2
14:15 70.2 °F 61.6 °F 30.18 in Calm     74% 0 in WeatherDisplay:10.37 W/m2
14:20 70.4 °F 60.5 °F 30.18 in Calm     71% 0 in WeatherDisplay:10.37 W/m2
14:25 70.4 °F 60.1 °F 30.18 in Calm   1 mph 70% 0 in WeatherDisplay:10.37 W/m2
14:30 70.5 °F 61.4 °F 30.18 in Calm   1 mph 73% 0 in WeatherDisplay:10.37 W/m2
14:35 70.7 °F 62 °F 30.18 in Calm     74% 0 in WeatherDisplay:10.37 W/m2
14:40 70.9 °F 61.8 °F 30.18 in Calm     73% 0 in WeatherDisplay:10.37 W/m2
14:45 70.7 °F 61.2 °F 30.18 in Calm     72% 0 in WeatherDisplay:10.37 W/m2
14:50 70.6 °F 60.8 °F 30.17 in Calm   1 mph 71% 0 in WeatherDisplay:10.37 W/m2
14:55 70.5 °F 60.3 °F 30.17 in Calm   1 mph 70% 0 in WeatherDisplay:10.37 W/m2
15:00 70.7 °F 60.4 °F 30.17 in Calm     70% 0 in WeatherDisplay:10.37 W/m2
15:05 70.9 °F 61 °F 30.17 in Calm   2 mph 71% 0 in WeatherDisplay:10.37 W/m2
15:10 71 °F 61.9 °F 30.17 in Calm   2 mph 73% 0 in WeatherDisplay:10.37 W/m2
15:15 70.8 °F 60.9 °F 30.17 in Calm   1 mph 71% 0 in WeatherDisplay:10.37 W/m2
15:20 70.7 °F 61.2 °F 30.17 in Calm   2 mph 72% 0 in WeatherDisplay:10.37 W/m2
15:25 70.7 °F 61.6 °F 30.17 in Calm   3 mph 73% 0 in WeatherDisplay:10.37 W/m2
15:30 70.6 °F 59.9 °F 30.17 in WSW 1 mph 2 mph 69% 0 in WeatherDisplay:10.37 W/m2
15:35 70.7 °F 61.6 °F 30.16 in Calm   1 mph 73% 0 in WeatherDisplay:10.37 W/m2
15:40 70.5 °F 62.2 °F 30.16 in Calm     75% 0 in WeatherDisplay:10.37 W/m2
15:45 70.1 °F 62.2 °F 30.16 in Calm   2 mph 76% 0 in WeatherDisplay:10.37 W/m2
15:50 69.9 °F 62 °F 30.17 in Calm   1 mph 76% 0 in WeatherDisplay:10.37 W/m2
15:55 69.7 °F 62.2 °F 30.17 in Calm     77% 0 in WeatherDisplay:10.37 W/m2
16:00 69.8 °F 63 °F 30.17 in Calm     79% 0 in WeatherDisplay:10.37 W/m2
16:05 69.8 °F 62.7 °F 30.17 in Calm     78% 0 in WeatherDisplay:10.37 W/m2
16:10 69.7 °F 62.5 °F 30.17 in Calm     78% 0 in WeatherDisplay:10.37 W/m2
16:15 69.6 °F 63.1 °F 30.16 in Calm     80% 0 in WeatherDisplay:10.37 W/m2
16:20 69.5 °F 63.1 °F 30.17 in Calm     80% 0 in WeatherDisplay:10.37 W/m2
16:25 69.5 °F 63 °F 30.17 in Calm     80% 0 in WeatherDisplay:10.37 W/m2
16:30 69.4 °F 63 °F 30.17 in Calm     80% 0 in WeatherDisplay:10.37 W/m2
16:35 69.4 °F 63.3 °F 30.16 in Calm     81% 0 in WeatherDisplay:10.37 W/m2
16:40 69.2 °F 62.8 °F 30.17 in Calm     80% 0 in WeatherDisplay:10.37 W/m2
16:45 69.1 °F 63.4 °F 30.17 in Calm     82% 0 in WeatherDisplay:10.37 W/m2
16:50 69.1 °F 63.4 °F 30.17 in Calm     82% 0 in WeatherDisplay:10.37 W/m2
16:55 69 °F 62.9 °F 30.17 in Calm     81% 0 in WeatherDisplay:10.37 W/m2
17:00 68.7 °F 62.6 °F 30.17 in Calm     81% 0 in WeatherDisplay:10.37 W/m2
17:05 68.5 °F 62.8 °F 30.17 in Calm     82% 0 in WeatherDisplay:10.37 W/m2
17:10 68.5 °F 63.1 °F 30.17 in Calm     83% 0 in WeatherDisplay:10.37 W/m2
17:15 68.4 °F 63 °F 30.18 in Calm     83% 0 in WeatherDisplay:10.37 W/m2
17:20 68.3 °F 63.3 °F 30.18 in Calm     84% 0 in WeatherDisplay:10.37 W/m2
17:25 68.3 °F 63.3 °F 30.17 in Calm     84% 0 in WeatherDisplay:10.37 W/m2
17:30 68.2 °F 63.2 °F 30.17 in Calm     84% 0 in WeatherDisplay:10.37 W/m2
17:35 68 °F 62.7 °F 30.18 in Calm     83% 0 in WeatherDisplay:10.37 W/m2
17:40 67.9 °F 62.5 °F 30.18 in Calm     83% 0 in WeatherDisplay:10.37 W/m2
17:45 67.6 °F 62.6 °F 30.18 in Calm     84% 0 in WeatherDisplay:10.37 W/m2
17:50 67.4 °F 62.4 °F 30.19 in Calm     84% 0 in WeatherDisplay:10.37 W/m2
17:55 67.2 °F 62.5 °F 30.19 in Calm     85% 0 in WeatherDisplay:10.37 W/m2
18:00 67.2 °F 62.8 °F 30.18 in Calm     86% 0 in WeatherDisplay:10.37 W/m2
18:05 67.1 °F 62.7 °F 30.18 in Calm     86% 0 in WeatherDisplay:10.37 W/m2
18:10 67 °F 62.7 °F 30.18 in Calm     86% 0 in WeatherDisplay:10.37 W/m2
18:15 67 °F 62.7 °F 30.18 in Calm     86% 0 in WeatherDisplay:10.37 W/m2
18:20 66.9 °F 62.9 °F 30.19 in Calm     87% 0 in WeatherDisplay:10.37 W/m2
18:25 66.9 °F 62.9 °F 30.19 in Calm     87% 0 in WeatherDisplay:10.37 W/m2
18:30 66.8 °F 63.1 °F 30.19 in Calm     88% 0 in WeatherDisplay:10.37 W/m2
18:35 66.7 °F 63 °F 30.19 in Calm     88% 0 in WeatherDisplay:10.37 W/m2
18:40 66.7 °F 63 °F 30.18 in Calm     88% 0 in WeatherDisplay:10.37 W/m2
18:45 66.5 °F 62.8 °F 30.18 in Calm     88% 0 in WeatherDisplay:10.37 W/m2
18:50 66.3 °F 62.7 °F 30.18 in Calm     88% 0 in WeatherDisplay:10.37 W/m2
18:55 66.1 °F 62.5 °F 30.19 in Calm     88% 0 in WeatherDisplay:10.37 W/m2
19:00 66 °F 62.7 °F 30.19 in Calm     89% 0 in WeatherDisplay:10.37 W/m2
19:05 65.9 °F 62.5 °F 30.19 in Calm     89% 0 in WeatherDisplay:10.37 W/m2
19:10 65.7 °F 62.7 °F 30.19 in Calm     90% 0 in WeatherDisplay:10.37 W/m2
19:15 65.6 °F 62.6 °F 30.19 in Calm     90% 0 in WeatherDisplay:10.37 W/m2
19:20 65.6 °F 62.6 °F 30.19 in Calm     90% 0 in WeatherDisplay:10.37 W/m2
19:25 65.6 °F 62.6 °F 30.19 in Calm     90% 0 in WeatherDisplay:10.37 W/m2
19:30 65.4 °F 62.4 °F 30.19 in Calm     90% 0 in WeatherDisplay:10.37 W/m2
19:35 65.4 °F 62.3 °F 30.18 in Calm     90% 0 in WeatherDisplay:10.37 W/m2
19:40 65.3 °F 62.3 °F 30.19 in Calm     90% 0 in WeatherDisplay:10.37 W/m2
19:45 65.2 °F 62.2 °F 30.19 in Calm     90% 0 in WeatherDisplay:10.37 W/m2
19:50 65.1 °F 62.1 °F 30.20 in Calm     90% 0 in WeatherDisplay:10.37 W/m2
19:55 65.2 °F 62.5 °F 30.19 in Calm     91% 0 in WeatherDisplay:10.37 W/m2
20:00 65.1 °F 62.4 °F 30.20 in Calm     91% 0 in WeatherDisplay:10.37 W/m2
20:05 65.1 °F 62.4 °F 30.21 in Calm     91% 0 in WeatherDisplay:10.37 W/m2
20:10 65.1 °F 62.4 °F 30.20 in Calm     91% 0 in WeatherDisplay:10.37 W/m2
20:15 65.1 °F 62.4 °F 30.21 in Calm     91% 0 in WeatherDisplay:10.37 W/m2
20:20 65.1 °F 62.4 °F 30.21 in Calm     91% 0 in WeatherDisplay:10.37 W/m2
20:25 65.1 °F 62.4 °F 30.21 in Calm     91% 0 in WeatherDisplay:10.37 W/m2
20:30 65 °F 62.3 °F 30.21 in Calm     91% 0 in WeatherDisplay:10.37 W/m2
20:35 65 °F 62.3 °F 30.21 in Calm     91% 0 in WeatherDisplay:10.37 W/m2
20:40 65 °F 62.6 °F 30.21 in Calm     92% 0 in WeatherDisplay:10.37 W/m2
20:45 65 °F 62.6 °F 30.21 in Calm     92% 0 in WeatherDisplay:10.37 W/m2
Compliments of Weather Underground - 2.25 mb